Time,TemperatureF,DewpointF,PressureIn,WindDirection,WindDirectionDegrees,WindSpeedMPH,WindSpeedGustMPH,Humidity,HourlyPrecipIn,Conditions,Clouds,dailyrainin,SoftwareType,DateUTC
2013-01-02 00:03:00,19.0,-99.9,30.02,SW,222,3.0,-999.0,-999,-99.99,,,-99.99,,2013-01-02 05:03:00,
2013-01-02 00:12:00,19.0,-99.9,30.02,SW,222,3.0,-999.0,-999,-99.99,,,-99.99,,2013-01-02 05:12:00,
2013-01-02 00:23:00,19.0,-99.9,30.02,SSW,212,2.0,-999.0,-999,-99.99,,,-99.99,,2013-01-02 05:23:00,
2013-01-02 00:33:00,19.0,-99.9,30.01,West,265,0.0,-999.0,-999,-99.99,,,-99.99,,2013-01-02 05:33:00,
2013-01-02 00:43:00,19.0,-99.9,30.01,West,265,0.0,-999.0,-999,-99.99,,,-99.99,,2013-01-02 05:43:00,
2013-01-02 00:53:00,19.0,-99.9,30.02,WSW,246,1.0,-999.0,-999,-99.99,,,-99.99,,2013-01-02 05:53:00,
2013-01-02 01:02:00,20.0,12.0,30.01,SW,233,2.0,-999.0,71,-99.99,,,-99.99,,2013-01-02 06:02:00,
2013-01-02 01:12:00,20.0,12.0,30.01,SW,233,2.0,-999.0,71,-99.99,,,-99.99,,2013-01-02 06:12:00,
2013-01-02 01:22:00,20.0,12.0,30.02,SW,215,1.0,-999.0,71,-99.99,,,-99.99,,2013-01-02 06:22:00,
2013-01-02 01:32:00,19.0,11.0,30.01,SSW,200,1.0,-999.0,71,-99.99,,,-99.99,,2013-01-02 06:32:00,
2013-01-02 01:42:00,19.0,11.0,30.01,SSW,200,1.0,-999.0,71,-99.99,,,-99.99,,2013-01-02 06:42:00,
2013-01-02 01:53:00,20.0,12.0,30.02,SW,219,1.0,-999.0,71,-99.99,,,-99.99,,2013-01-02 06:53:00,
2013-01-02 02:02:00,19.0,11.0,30.01,SW,234,2.0,-999.0,71,-99.99,,,-99.99,,2013-01-02 07:02:00,
2013-01-02 02:12:00,19.0,11.0,30.01,SW,234,2.0,-999.0,71,-99.99,,,-99.99,,2013-01-02 07:12:00,
2013-01-02 02:22:00,19.0,11.0,30.01,SW,220,2.0,-999.0,72,-99.99,,,-99.99,,2013-01-02 07:22:00,
2013-01-02 02:52:00,19.0,-99.9,29.89,SW,220,1.0,-999.0,-999,-99.99,,,-99.99,,2013-01-02 07:52:00,
2013-01-02 03:22:00,19.0,-99.9,29.89,SW,215,1.0,-999.0,-999,-99.99,,,-99.99,,2013-01-02 08:22:00,
2013-01-02 03:32:00,19.0,-99.9,30.02,SSW,193,0.0,-999.0,-999,-99.99,,,-99.99,,2013-01-02 08:32:00,
2013-01-02 03:42:00,19.0,-99.9,30.02,SSW,193,0.0,-999.0,-999,-99.99,,,-99.99,,2013-01-02 08:42:00,
2013-01-02 03:53:00,18.0,12.0,30.02,SW,220,5.0,-999.0,78,-99.99,,,-99.99,,2013-01-02 08:53:00,
2013-01-02 04:02:00,18.0,12.0,30.03,SW,216,1.0,-999.0,78,-99.99,,,-99.99,,2013-01-02 09:02:00,
2013-01-02 04:12:00,18.0,12.0,30.03,SW,216,1.0,-999.0,78,-99.99,,,-99.99,,2013-01-02 09:12:00,
2013-01-02 04:22:00,18.0,13.0,30.01,SW,227,1.0,-999.0,80,-99.99,,,-99.99,,2013-01-02 09:22:00,
2013-01-02 04:32:00,18.0,13.0,30.01,SW,217,1.0,-999.0,80,-99.99,,,-99.99,,2013-01-02 09:32:00,
2013-01-02 04:43:00,18.0,13.0,30.01,SW,217,1.0,-999.0,80,-99.99,,,-99.99,,2013-01-02 09:43:00,
2013-01-02 04:53:00,18.0,13.0,30.01,SW,224,3.0,-999.0,80,-99.99,,,-99.99,,2013-01-02 09:53:00,
2013-01-02 05:02:00,18.0,12.0,30.02,SW,220,5.0,-999.0,78,-99.99,,,-99.99,,2013-01-02 10:02:00,
2013-01-02 05:12:00,18.0,12.0,30.02,SW,220,5.0,-999.0,78,-99.99,,,-99.99,,2013-01-02 10:12:00,
2013-01-02 05:22:00,18.0,12.0,30.02,WSW,248,7.0,-999.0,78,-99.99,,,-99.99,,2013-01-02 10:22:00,
2013-01-02 05:32:00,19.0,13.0,30.02,SW,236,5.0,-999.0,78,-99.99,,,-99.99,,2013-01-02 10:32:00,
2013-01-02 05:42:00,19.0,13.0,30.02,SW,236,5.0,-999.0,78,-99.99,,,-99.99,,2013-01-02 10:42:00,
2013-01-02 18:03:00,-999.0,-99.9,30.00,South,191,0.0,-999.0,-999,-99.99,,,-99.99,,2013-01-02 23:03:00,
2013-01-02 18:13:00,-999.0,-99.9,30.00,South,191,0.0,-999.0,-999,-99.99,,,-99.99,,2013-01-02 23:13:00,
2013-01-02 18:23:00,-999.0,-99.9,30.01,South,191,0.0,-999.0,-999,-99.99,,,-99.99,,2013-01-02 23:23:00,
2013-01-02 18:33:00,19.0,12.0,30.01,South,191,0.0,-999.0,73,-99.99,,,-99.99,,2013-01-02 23:33:00,
2013-01-02 18:42:00,19.0,12.0,30.01,South,191,0.0,-999.0,73,-99.99,,,-99.99,,2013-01-02 23:42:00,
2013-01-02 19:38:00,19.0,11.0,30.15,SSE,148,0.0,-999.0,72,-99.99,,,-99.99,,2013-01-03 00:38:00,
2013-01-02 19:53:00,19.0,11.0,30.15,SSE,148,0.0,-999.0,72,-99.99,,,-99.99,,2013-01-03 00:53:00,
2013-01-02 20:02:00,19.0,12.0,30.16,SSE,154,0.0,-999.0,73,-99.99,,,-99.99,,2013-01-03 01:02:00,
2013-01-02 20:12:00,19.0,12.0,30.16,SSE,154,0.0,-999.0,73,-99.99,,,-99.99,,2013-01-03 01:12:00,
2013-01-02 20:23:00,19.0,12.0,30.16,SW,222,2.0,-999.0,73,-99.99,,,-99.99,,2013-01-03 01:23:00,
2013-01-02 20:33:00,19.0,12.0,30.16,WSW,243,3.0,-999.0,73,-99.99,,,-99.99,,2013-01-03 01:33:00,
2013-01-02 20:43:00,19.0,12.0,30.16,WSW,243,3.0,-999.0,73,-99.99,,,-99.99,,2013-01-03 01:43:00,
2013-01-02 20:53:00,19.0,12.0,30.16,SSW,193,2.0,-999.0,73,-99.99,,,-99.99,,2013-01-03 01:53:00,
2013-01-02 21:02:00,19.0,12.0,30.16,SW,223,3.0,-999.0,73,-99.99,,,-99.99,,2013-01-03 02:02:00,
2013-01-02 21:12:00,19.0,12.0,30.16,SW,223,3.0,-999.0,73,-99.99,,,-99.99,,2013-01-03 02:12:00,
2013-01-02 21:23:00,19.0,12.0,30.16,SW,229,1.0,-999.0,73,-99.99,,,-99.99,,2013-01-03 02:23:00,
2013-01-02 21:33:00,19.0,12.0,30.16,SSW,208,1.0,-999.0,73,-99.99,,,-99.99,,2013-01-03 02:33:00,
2013-01-02 21:42:00,19.0,12.0,30.16,SSW,208,1.0,-999.0,73,-99.99,,,-99.99,,2013-01-03 02:42:00,
2013-01-02 21:53:00,19.0,12.0,30.16,SSW,208,1.0,-999.0,73,-99.99,,,-99.99,,2013-01-03 02:53:00,
2013-01-02 22:02:00,19.0,11.0,30.17,South,174,3.0,-999.0,72,-99.99,,,-99.99,,2013-01-03 03:02:00,
2013-01-02 22:12:00,18.0,10.0,30.17,SW,223,2.0,-999.0,71,-99.99,,,-99.99,,2013-01-03 03:12:00,
2013-01-02 22:22:00,18.0,10.0,30.17,SW,223,2.0,-999.0,71,-99.99,,,-99.99,,2013-01-03 03:22:00,
2013-01-02 22:46:00,18.0,10.0,30.18,SW,236,2.0,-999.0,71,-99.99,,,-99.99,,2013-01-03 03:46:00,
2013-01-02 22:53:00,18.0,11.0,30.18,SSW,208,1.0,-999.0,72,-99.99,,,-99.99,,2013-01-03 03:53:00,
2013-01-02 23:02:00,18.0,10.0,30.17,South,182,1.0,-999.0,71,-99.99,,,-99.99,,2013-01-03 04:02:00,
2013-01-02 23:12:00,18.0,10.0,30.17,South,182,1.0,-999.0,71,-99.99,,,-99.99,,2013-01-03 04:12:00,
2013-01-02 23:22:00,18.0,10.0,30.17,SSW,192,1.0,-999.0,71,-99.99,,,-99.99,,2013-01-03 04:22:00,
2013-01-02 23:32:00,18.0,10.0,30.17,South,182,1.0,-999.0,71,-99.99,,,-99.99,,2013-01-03 04:32:00,
2013-01-02 23:42:00,18.0,10.0,30.17,South,182,1.0,-999.0,71,-99.99,,,-99.99,,2013-01-03 04:42:00,
2013-01-02 23:53:00,18.0,10.0,30.17,South,181,1.0,-999.0,71,-99.99,,,-99.99,,2013-01-03 04:53:00,